Погода в Гвасюги

Погода в Гвасюги : погода сейчас, прогноз погоды и архив. Всё, что Вы хотите узнать о погоде в Гвасюги!

Поиск расширенной информации на нашем сайте:

Другие новости

Новости СМИ2

Главная страница сайта

Новости сайта

03.07.2017

Напоминаем, что на нашем специализированном сайте Метеоцентр.Азия вы можете получить высокодетализированные автоматические прогнозы погоды по пунктам России, СНГ и мира в авиационном формате (включающие направление и скорость ветра, видимость, явления погоды, количество и форму облачности, нижнюю и верхнюю границу облачности).


Погода в Гвасюги - сегодня

Время (UTC), дата Ветер
(°,м/с) 
Видим.   Явления Облачность Т
(°С)
Тd
(°С)
f(%) Тe
(°С)
Pmin
(гПа)
dP
(гПа)
Po
(мм)
O2
(г/м3)
Тmin Tmax R s Состояние
почвы
00 15.06.18 тихо ()   20000 м    8/0 средняя, верхняя 
[Ac lent|Ci sp]
+15.9 +5.6 50 +16  1017  -0.6  747  283           
03 15.06.18 120 (ЮВ) 20000 м    10/3 600 м верхняя 
[Cu med, cong|Ci]
+21.2 +6.2 38 +21  1014.6  -2  745  278           
06 15.06.18 360 (С) 20000 м    10/3 600 м верхняя 
[Cu med, cong|Cs]
+23.7 +6.5 33 +24  1012.2  -2.1  744  275           
12 15.06.18 тихо ()   20000 м    10/3 600 м кучево-дожд., средняя, верхняя 
[Cb cap|Ac cuf|Ci sp]
+15 +11.7 81 +19  1013.3  0.8  744  282           
15 15.06.18 тихо ()   20000 м    10/3 600 м кучево-дожд., средняя, верхняя 
[Cb cap|Ac cuf|Ci sp]
+12 +10.6 91 +14  1013.7  0.1  744  285           
18 15.06.18 тихо ()   20000 м    10/3 600 м средняя, верхняя 
[Sc|Ac lent|Ci sp]
+10.6 +9.5 93 +11  1013.6  -0.2  744  287           
00 16.06.18 230 (ЮЗ) 20000 м    10/4 600 м средняя 
[Sc|Ac und]
+17.2 +7.9 54 +19  1013  -0.5  744  281           
03 16.06.18 220 (ЮЗ) 20000 м    9/3 600 м средняя 
[Cu hum|Ac und]
+21.4 +9.7 47 +22  1010.5  -2.2  742  276           
06 16.06.18 200 (Ю) 20000 м    6/1 600 м средняя 
[Cu hum|Ac trans]
+23.8 +8 36 +24  1007.6  -2.7  740  273           
12 16.06.18 тихо ()   20000 м    10/0 средняя 
[Ac trans]
+15.4 +12.8 84 +21  1006.1  -0.2  739  279           
18 16.06.18 тихо ()   20000 м  {дождь}  10/8 600 м средняя 
[Sc|As op]
+12.7 +11.6 93 +16  1005.3  -0.2  738  282           
21 16.06.18 220 (ЮЗ) 10 км  слаб. дождь  10/8 600 м средняя 
[Sc|As op]
+13.2 +9.9 80 +15  1004.5  -0.8  737  282  +11.8    0.3    влажная 
00 17.06.18 тихо ()   20000 м  в посл. час дождь  10/10 600 м 
[Sc]
+12.7 +10 84 +14  1005.3  0.8  738  282           
03 17.06.18 200 (Ю) 20000 м  {дождь}  10/6 600 м средняя 
[Sc|As op]
+13.2 +10 81 +15  1005.3  738  282           
06 17.06.18 200 (Ю) 20000 м  {дождь}  10/4 600 м средняя 
[Sc|As op]
+14.1 +10.9 81 +18  1004.9  -0.2  738  281           
12 17.06.18 тихо ()   20000 м    10/5 600 м средняя 
[Sc|As op]
+14.4 +11.8 84 +18  1006.3  1.1  739  281           
15 17.06.18 тихо ()   20000 м    10/10 600 м 
[Sc]
+13.3 +12 92 +18  1006.2  -0.2  739  281           
18 17.06.18 тихо ()   20000 м    10/10 600 м 
[Sc]
+13.3 +12.1 92 +18  1005.7  -0.5  738  281           
00 18.06.18 140 (ЮВ) 20000 м    9/9 600 м 
[Sc]
+19.1 +14 72 +28  1005.6  0.1  739  275           
03 18.06.18 180 (Ю) 20000 м    8/5 600 м верхняя 
[Cu med, cong|Ci sp]
+23.5 +14 55 +31  1004.1  -1.2  738  271           
06 18.06.18 210 (ЮЗ) 20000 м    9/6 600 м кучево-дожд., средняя, верхняя 
[Cb calv|Ac cast|Ci ing]
+26.3 +11.4 39 +30  1002.2  -1.7  737  269           
12 18.06.18 360 (С) 20000 м    10/6 600 м верхняя 
[Sc|Cs]
+17.5 +14.6 83 +28  1001.1  -0.9  735  275           
15 18.06.18 тихо ()   20000 м  в посл. час дождь  10/4 600 м средняя 
[Sc|As op]
+15.5 +14.3 93 +24  999.5  -1.7  734  277           
18 18.06.18 230 (ЮЗ) 10 км  слаб. ливневой дождь  10/8 600 м кучево-дожд., средняя 
[Cb cap|As op]
+18.1 +14.2 78 +28  998.4  -0.8  733  274           
21 18.06.18 230 (ЮЗ) 20000 м  {ливн. осадки}  10/8 600 м кучево-дожд., средняя, верхняя 
[Cb cap|Ac lent|Ci sp]
+18 +14.8 82 +28  998.2  -0.2  733  274  +15.3    0.5    влажная 
Время (UTC), дата Ветер
(°,м/с) 
Видим.   Явления Облачность Т
(°С)
Тd
(°С)
f(%) Тe
(°С)
Pmin
(гПа)
dP
(гПа)
Po
(мм)
O2
(г/м3)
Тmin Tmax R s Состояние
почвы

Для получения пояснительной информации подведите курсор к названию столбца.

ПОГОДА в Гвасюги - архив

Всё, что Вы хотите узнать о погоде в Гвасюги - удобно и подробно!

Выберите нужную дату (начиная с 1 января 2015* года) и нажмите кнопку "Найти".
Будут отображены архивные сводки погоды по пункту Гвасюги, начиная с указанной даты.


Отображать данные в формате CSV (для использования в таблицах Excel)


Внимание! Наш архив погоды предназначен исключительно для личного некоммерческого использования в познавательных целях. Если Вам необходимы официальные справки о состоянии погоды (для производственных, юридических, коммерческих и т.п. целей), обращайтесь в органы Росгидромета.

*Примечание: данная дата относится к архиву по метеостанциям СССР (Россия, СНГ, Балтия).
Архив по метеостанциям Зарубежной Европы и Азии (кроме Китая) хранится 10 дней, по другим регионам земного шара (Китай, Африка, Америка, Австралия, Океания) - 1 день.

Гвасюги - район местоположения метеостанции


Название, широта, долгота, высота метеостанции:
Гвасюги 47.7°ш. 136.2°д. 180 м над ур. моря [Российская Федерация]

Дополнительная информация

В oтличие oт бoльшинства пoгoдных сайтoв мы публикуем пoдрoбную метеoинфoрмацию в детальнoм прoфессиoнальнoм фoрмате.

Характеристики температуры и влажнoсти вoздуха измеряются на высoте 2 м в тени вдали oт зданий и деревьев.
Скoрoсть ветра измеряется на высoте 10 м (на урoвне рoста челoвека скoрoсть ветра ниже в 1.5-2 раза). Если метеoстанция нахoдится в гoрoде или в лесу, тo скoрoсть ветра занижена на 2-4 м/с пo сравнению с oткрытым местoм. Скoрoсть ветра над акватoриями крупных рек и oзёр, а также на вершинах хoлмoв на 2-5 м/с выше, чем в oбычных услoвиях.
Атмoсфернoе давление в разных тoчках местнoсти мoжет значительнo oтличаться oт давления на метеoстанции, в зависимoсти oт услoвий рельефа (при пoдъёме на 10 м давление пoнижается примернo на 1 мм рт.ст.).